Location: Bouillancy
(49.1149°N, 2.9308°E)
Time: 23:22:31
(UTC+00:00)

PSLV R/B - Pass Details

Date: 30 September 2020
Orbit: 568 x 597 km, 98.2° (Epoch: 25 October)

Event Time Altitude Azimuth Distance (km) Brightness Sun altitude
Rises 17:53:48 0° 16° (NNE) 2,846 7.3 -5.0°
Reaches altitude 10° 17:55:59 10° 19° (NNE) 1,943 6.4 -5.3°
Maximum altitude 18:00:11 68° 102° (ESE) 648 4.0 -6.0°
Drops below altitude 10° 18:04:22 10° 186° (S) 1,932 6.7 -6.7°
Sets 18:06:33 0° 189° (S) 2,830 7.5 -7.1°
